Weather History for Cherry Point, NC

Change the Weather History Date:

Tuesday, February 12, 2013

  Actual Average Record
Temperature  
Mean Temperature 58 °F -  
Max Temperature 63 °F 55 °F 71 °F (1999)
Min Temperature 51 °F 35 °F 23 °F (2012)
Degree Days  
Heating Degree Days 8    
Growing Degree Days 8 (Base 50)    
Moisture  
Dew Point 45 °F    
Average Humidity 65    
Maximum Humidity 84    
Minimum Humidity 32    
Precipitation  
Precipitation 0.06 in - - ()
Sea Level Pressure  
Sea Level Pressure 29.99 in    
Wind  
Wind Speed 8 mph ()    
Max Wind Speed 16 mph    
Max Gust Speed 26 mph    
Visibility 9.8 miles    
Events Rain    
Averages and records for this station are not official NWS values.
T = Trace of Precipitation, MM = Missing Value Source: Averaged Metar Reports

Daily Weather History Graph

Daily Weather History Graph

Search for Another Location

Airport:

Trip Planner

Search our weather history database for the weather conditions in past years. The results will help you decide how hot, cold, wet, or windy it might be!

Date:

Astronomy

Feb. 12, 2013 Rise Set
Actual Time 6:56 AM EST 5:47 PM EST
Civil Twilight 6:30 AM EST 6:13 PM EST
Nautical Twilight 6:00 AM EST 6:43 PM EST
Astronomical Twilight 5:31 AM EST 7:12 PM EST
Moon 8:00 AM EST (2/12) 8:36 PM EST (2/12)
Length of Visible Light 11h 43m
Length of Day
10h 51m
Waxing Crescent, 7% of the Moon is Illuminated
Feb 12
Waxing Crescent
Feb 17
First Quarter
Feb 25
Full
Mar 4
Last Quarter
Mar 11
New

Hourly Weather History & Observations

Time (EST) Temp. Dew Point Humidity Pressure Visibility Wind Dir Wind Speed Gust Speed Precip Events Conditions
12:54 AM 62.1 °F 57.0 °F 84% 29.94 in 10.0 mi WSW 15.0 mph - 0.01 in   Scattered Clouds
1:54 AM 62.1 °F 55.9 °F 80% 29.95 in 10.0 mi West 16.1 mph 24.2 mph 0.01 in   Mostly Cloudy
2:54 AM 62.1 °F 55.0 °F 78% 29.96 in 10.0 mi West 15.0 mph 26.5 mph 0.01 in   Clear
3:54 AM 61.0 °F 54.0 °F 78% 29.96 in 10.0 mi West 12.7 mph - N/A   Clear
4:54 AM 60.1 °F 53.1 °F 78% 29.97 in 10.0 mi West 10.4 mph - 0.01 in   Clear
5:54 AM 57.9 °F 52.0 °F 81% 29.97 in 10.0 mi West 8.1 mph - N/A   Clear
6:54 AM 57.0 °F 52.0 °F 83% 30.00 in 10.0 mi West 8.1 mph - 0.01 in   Clear
7:54 AM 57.0 °F 52.0 °F 83% 30.03 in 10.0 mi West 8.1 mph - N/A   Mostly Cloudy
8:54 AM 57.9 °F 51.1 °F 78% 30.05 in 10.0 mi NW 8.1 mph - N/A   Mostly Cloudy
9:54 AM 57.9 °F 42.1 °F 56% 30.04 in 10.0 mi NNW 10.4 mph - N/A   Mostly Cloudy
10:54 AM 59.0 °F 41.0 °F 51% 30.06 in 10.0 mi NNW 8.1 mph - N/A   Mostly Cloudy
11:54 AM 57.9 °F 37.0 °F 46% 30.06 in 10.0 mi NW 8.1 mph 18.4 mph N/A   Mostly Cloudy
12:54 PM 61.0 °F 30.9 °F 32% 30.03 in 10.0 mi NW 8.1 mph - N/A   Scattered Clouds
1:54 PM 62.1 °F 34.0 °F 35% 30.03 in 10.0 mi Variable 4.6 mph - N/A   Mostly Cloudy
2:54 PM 63.0 °F 34.0 °F 34% 29.96 in 10.0 mi Calm Calm - N/A   Clear
3:54 PM 63.0 °F 35.1 °F 35% 29.98 in 10.0 mi WSW 6.9 mph - N/A   Mostly Cloudy
4:54 PM 57.9 °F 41.0 °F 53% 29.98 in 10.0 mi SSW 5.8 mph - N/A   Mostly Cloudy
5:54 PM 55.0 °F 42.1 °F 62% 29.98 in 10.0 mi SSW 8.1 mph - N/A   Clear
6:54 PM 54.0 °F 43.0 °F 66% 30.00 in 10.0 mi SW 3.5 mph - N/A   Mostly Cloudy
7:54 PM 53.1 °F 44.1 °F 71% 29.98 in 10.0 mi SSW 4.6 mph - N/A   Mostly Cloudy
8:54 PM 53.1 °F 44.1 °F 71% 29.95 in 10.0 mi SSW 3.5 mph - N/A   Mostly Cloudy
9:54 PM 53.1 °F 44.1 °F 71% 29.96 in 10.0 mi SW 4.6 mph - N/A   Mostly Cloudy
10:54 PM 52.0 °F 46.0 °F 80% 29.99 in 10.0 mi Calm Calm - 0.00 in Rain Light Rain
11:54 PM 51.1 °F 46.0 °F 83% 30.01 in 6.0 mi Calm Calm - 0.01 in Rain Light Rain